When you browse on this site, cookies collect data to enhance your experience and personalize the content and advertising you see.
Visit our Privacy Policy to learn more. By continuing to use the site, you agree to this use of cookies and data.
  • In Switzerland
  • List of Countries
  • For 7 days
  • Water Temperature
  • Satellite Maps
  • Weather Map
  • Weather Widgets
  • user-avatar
    Login

    Hourly Weather Levenskoe

    Today, 27 June, Thursday

    Time Temperature Precipitation Wind Pressure Humidity
    00:00 +17°C° 0.8 mm 2 mps 744 mmHg 89%
    01:00 +17°C° 0.8 mm 2 mps 744 mmHg 91%
    02:00 +16°C° 0 mm 3 mps 743 mmHg 92%
    03:00 +16°C° 0.2 mm 3 mps 743 mmHg 93%
    04:00 +16°C° 0.2 mm 3 mps 742 mmHg 94%
    05:00 +16°C° 0.2 mm 3 mps 742 mmHg 95%
    06:00 +17°C° 0.3 mm 3 mps 741 mmHg 94%
    07:00 +17°C° 0.3 mm 3 mps 741 mmHg 93%
    08:00 +18°C° 0.3 mm 3 mps 740 mmHg 92%
    09:00 +18°C° 1.8 mm 3 mps 739 mmHg 94%
    10:00 +18°C° 1.8 mm 3 mps 738 mmHg 96%
    11:00 +18°C° 1.8 mm 4 mps 737 mmHg 97%
    12:00 +19°C° 0.9 mm 4 mps 736 mmHg 95%
    13:00 +20°C° 0.9 mm 5 mps 736 mmHg 93%
    14:00 +21°C° 0.9 mm 5 mps 735 mmHg 91%
    15:00 +21°C° 1.3 mm 5 mps 734 mmHg 91%
    16:00 +21°C° 1.3 mm 4 mps 733 mmHg 90%
    17:00 +22°C° 1.3 mm 4 mps 732 mmHg 89%
    18:00 +21°C° 1.9 mm 4 mps 731 mmHg 90%
    19:00 +20°C° 1.9 mm 3 mps 730 mmHg 91%
    20:00 +20°C° 1.9 mm 3 mps 730 mmHg 91%
    21:00 +19°C° 0.3 mm 4 mps 729 mmHg 93%
    22:00 +19°C° 0.3 mm 4 mps 728 mmHg 94%
    23:00 +17°C° 0.3 mm 5 mps 728 mmHg 96%

    Tomorrow, 28 June, Friday

    Time Temperature Precipitation Wind Pressure Humidity
    00:00 +17°C° 0 mm 5 mps 728 mmHg 95%
    01:00 +16°C° 0 mm 6 mps 728 mmHg 94%
    02:00 +16°C° 0 mm 6 mps 728 mmHg 94%
    03:00 +15°C° 0 mm 6 mps 728 mmHg 93%
    04:00 +15°C° 0 mm 6 mps 728 mmHg 93%
    05:00 +14°C° 0 mm 6 mps 728 mmHg 93%
    06:00 +14°C° 0.1 mm 6 mps 728 mmHg 92%
    07:00 +14°C° 0.1 mm 6 mps 727 mmHg 91%
    08:00 +14°C° 0.1 mm 6 mps 727 mmHg 90%
    09:00 +14°C° 0.1 mm 6 mps 727 mmHg 89%
    10:00 +14°C° 0.1 mm 7 mps 727 mmHg 88%
    11:00 +14°C° 0.1 mm 7 mps 727 mmHg 87%
    12:00 +14°C° 0.1 mm 7 mps 727 mmHg 86%
    13:00 +14°C° 0.1 mm 7 mps 727 mmHg 85%
    14:00 +14°C° 0.1 mm 7 mps 727 mmHg 84%
    15:00 +14°C° 0.1 mm 6 mps 727 mmHg 85%
    16:00 +13°C° 0.1 mm 6 mps 727 mmHg 86%
    17:00 +13°C° 0.1 mm 5 mps 727 mmHg 86%
    18:00 +12°C° 0.1 mm 5 mps 727 mmHg 88%
    19:00 +12°C° 0.1 mm 5 mps 727 mmHg 91%
    20:00 +10°C° 0.1 mm 6 mps 727 mmHg 93%
    21:00 +10°C° 0.3 mm 6 mps 727 mmHg 94%
    22:00 +9°C° 0.3 mm 7 mps 727 mmHg 94%
    23:00 +8°C° 0.3 mm 7 mps 728 mmHg 95%

    Day after tomorrow, 29 June, Saturday

    Time Temperature Precipitation Wind Pressure Humidity
    00:00 +8°C° 0.3 mm 7 mps 728 mmHg 95%
    01:00 +9°C° 0.3 mm 6 mps 728 mmHg 95%
    02:00 +9°C° 0.3 mm 6 mps 728 mmHg 95%
    03:00 +9°C° 0.4 mm 6 mps 728 mmHg 95%
    04:00 +9°C° 0.4 mm 6 mps 728 mmHg 95%
    05:00 +9°C° 0.4 mm 6 mps 728 mmHg 95%
    06:00 +9°C° 0.5 mm 7 mps 729 mmHg 95%
    07:00 +9°C° 0.5 mm 7 mps 729 mmHg 95%
    08:00 +9°C° 0.5 mm 8 mps 730 mmHg 95%
    09:00 +9°C° 0.3 mm 8 mps 731 mmHg 94%
    10:00 +7°C° 0.3 mm 8 mps 731 mmHg 94%
    11:00 +7°C° 0.3 mm 8 mps 732 mmHg 94%
    12:00 +8°C° 0.1 mm 7 mps 733 mmHg 93%
    13:00 +8°C° 0.1 mm 7 mps 734 mmHg 92%
    14:00 +8°C° 0.1 mm 7 mps 734 mmHg 92%
    15:00 +8°C° 0 mm 7 mps 735 mmHg 89%
    16:00 +8°C° 0 mm 6 mps 735 mmHg 87%
    17:00 +8°C° 0 mm 6 mps 736 mmHg 85%
    18:00 +8°C° 0 mm 5 mps 736 mmHg 83%
    19:00 +8°C° 0 mm 5 mps 736 mmHg 81%
    20:00 +10°C° 0 mm 4 mps 737 mmHg 80%
    21:00 +8°C° 0 mm 4 mps 737 mmHg 79%
    22:00 +8°C° 0 mm 4 mps 737 mmHg 79%
    23:00 +9°C° 0 mm 3 mps 737 mmHg 79%

    30 June, Sunday

    Time Temperature Precipitation Wind Pressure Humidity
    00:00 +10°C° 0 mm 3 mps 737 mmHg 79%
    01:00 +10°C° 0 mm 3 mps 738 mmHg 78%
    02:00 +10°C° 0 mm 4 mps 738 mmHg 78%
    03:00 +8°C° 0 mm 4 mps 738 mmHg 78%
    04:00 +8°C° 0 mm 4 mps 738 mmHg 78%
    05:00 +8°C° 0 mm 4 mps 738 mmHg 78%
    06:00 +10°C° 0 mm 4 mps 739 mmHg 74%
    07:00 +12°C° 0 mm 4 mps 739 mmHg 70%
    08:00 +14°C° 0 mm 4 mps 739 mmHg 65%
    09:00 +15°C° 0 mm 4 mps 739 mmHg 62%
    10:00 +18°C° 0 mm 4 mps 739 mmHg 59%
    11:00 +19°C° 0 mm 5 mps 740 mmHg 56%
    12:00 +19°C° 0 mm 4 mps 740 mmHg 58%
    13:00 +20°C° 0 mm 4 mps 739 mmHg 60%
    14:00 +20°C° 0 mm 4 mps 739 mmHg 62%
    15:00 +20°C° 0.3 mm 4 mps 739 mmHg 67%
    16:00 +19°C° 0.3 mm 4 mps 739 mmHg 73%
    17:00 +19°C° 0.3 mm 4 mps 739 mmHg 79%
    18:00 +17°C° 0 mm 4 mps 740 mmHg 82%
    19:00 +16°C° 0 mm 3 mps 740 mmHg 86%
    20:00 +13°C° 0 mm 3 mps 740 mmHg 89%
    21:00 +13°C° 0 mm 3 mps 741 mmHg 90%
    22:00 +12°C° 0 mm 3 mps 741 mmHg 91%
    23:00 +11°C° 0 mm 3 mps 741 mmHg 92%

    1 July, Monday

    Time Temperature Precipitation Wind Pressure Humidity
    00:00 +12°C° 0 mm 2 mps 741 mmHg 92%
    01:00 +12°C° 0 mm 2 mps 742 mmHg 92%
    02:00 +10°C° 0 mm 2 mps 742 mmHg 93%
    03:00 +12°C° 0 mm 2 mps 742 mmHg 92%
    04:00 +12°C° 0 mm 2 mps 742 mmHg 92%
    05:00 +13°C° 0 mm 2 mps 742 mmHg 92%
    06:00 +14°C° 0 mm 2 mps 742 mmHg 90%
    07:00 +15°C° 0 mm 2 mps 742 mmHg 87%
    08:00 +16°C° 0 mm 2 mps 742 mmHg 85%
    09:00 +18°C° 0 mm 2 mps 741 mmHg 81%
    10:00 +20°C° 0 mm 3 mps 741 mmHg 76%
    11:00 +22°C° 0 mm 3 mps 741 mmHg 72%
    12:00 +24°C° 0.1 mm 3 mps 741 mmHg 73%
    13:00 +25°C° 0.1 mm 4 mps 740 mmHg 74%
    14:00 +25°C° 0.1 mm 4 mps 740 mmHg 74%
    15:00 +26°C° 0.1 mm 4 mps 740 mmHg 74%
    16:00 +26°C° 0.1 mm 3 mps 739 mmHg 75%
    17:00 +26°C° 0.1 mm 3 mps 739 mmHg 75%
    18:00 +25°C° 0.1 mm 3 mps 739 mmHg 80%
    19:00 +22°C° 0.1 mm 3 mps 739 mmHg 85%
    20:00 +21°C° 0.1 mm 2 mps 739 mmHg 90%
    21:00 +20°C° 0.1 mm 3 mps 738 mmHg 91%
    22:00 +20°C° 0.1 mm 3 mps 738 mmHg 93%
    23:00 +20°C° 0.1 mm 3 mps 738 mmHg 94%

    2 July, Tuesday

    Time Temperature Precipitation Wind Pressure Humidity
    00:00 +19°C° 0.1 mm 2 mps 737 mmHg 94%
    01:00 +19°C° 0.1 mm 2 mps 737 mmHg 95%
    02:00 +18°C° 0.1 mm 2 mps 737 mmHg 96%
    03:00 +19°C° 0.8 mm 2 mps 737 mmHg 96%
    04:00 +19°C° 0.8 mm 2 mps 737 mmHg 96%
    05:00 +19°C° 0.8 mm 3 mps 737 mmHg 96%
    06:00 +20°C° 0 mm 3 mps 737 mmHg 91%
    07:00 +20°C° 0 mm 4 mps 737 mmHg 87%
    08:00 +21°C° 0 mm 5 mps 737 mmHg 83%
    09:00 +22°C° 0 mm 5 mps 737 mmHg 78%
    10:00 +22°C° 0 mm 6 mps 737 mmHg 72%
    11:00 +23°C° 0 mm 6 mps 738 mmHg 67%
    12:00 +23°C° 0 mm 6 mps 738 mmHg 64%
    13:00 +23°C° 0 mm 6 mps 738 mmHg 62%
    14:00 +23°C° 0 mm 6 mps 737 mmHg 60%
    15:00 +23°C° 0 mm 6 mps 738 mmHg 64%
    16:00 +23°C° 0 mm 5 mps 738 mmHg 67%
    17:00 +22°C° 0 mm 4 mps 738 mmHg 70%
    18:00 +21°C° 0 mm 4 mps 738 mmHg 75%
    19:00 +19°C° 0 mm 4 mps 738 mmHg 79%
    20:00 +18°C° 0 mm 3 mps 738 mmHg 83%
    21:00 +17°C° 0 mm 3 mps 738 mmHg 86%
    22:00 +16°C° 0 mm 3 mps 738 mmHg 90%
    23:00 +14°C° 0 mm 3 mps 738 mmHg 94%
    Show more